Weather History for CWWA - January, 2013

Change the Weather History Date:

Wednesday, January 30, 2013

  Actual Average Record
Temperature  
Mean Temperature 39 °F -  
Max Temperature 40 °F - - ()
Min Temperature 38 °F - - ()
Degree Days  
Heating Degree Days 26    
Moisture  
Dew Point 39 °F    
Average Humidity 97    
Maximum Humidity 97    
Minimum Humidity 93    
Precipitation  
Precipitation 0.00 in - - ()
Sea Level Pressure  
Sea Level Pressure 30.33 in    
Wind  
Wind Speed 0 mph ()    
Max Wind Speed 0 mph    
Max Gust Speed -    
T = Trace of Precipitation, MM = Missing Value Source: Averaged Metar Reports

Daily Weather History Graph

Daily Weather History Graph

Search for Another Location

Airport or City:

Trip Planner

Search our weather history database for the weather conditions in past years. The results will help you decide how hot, cold, wet, or windy it might be!

Date:

Astronomy

Jan. 30, 2013 Rise Set
Actual Time 7:46 AM PST 5:06 PM PST
Civil Twilight 7:12 AM PST 5:40 PM PST
Nautical Twilight 6:33 AM PST 6:19 PM PST
Astronomical Twilight 5:56 AM PST 6:56 PM PST
Moon 9:39 PM PST (1/30) 8:52 AM PST (1/30)
Length of Visible Light 10h 28m
Length of Day
9h 19m
Waning Gibbous, 87% of the Moon is Illuminated
Jan 30
Waning Gibbous
Feb 3
Last Quarter
Feb 9
New
Feb 17
First Quarter
Feb 25
Full

Hourly Weather History & Observations

Time (PST) Temp. Dew Point Humidity Pressure Visibility Wind Dir Wind Speed Gust Speed Precip Events Conditions
12:00 AM 38.7 °F 37.6 °F 96% 30.29 in - Calm Calm - N/A   Unknown
1:00 AM 38.8 °F 37.9 °F 97% 30.29 in - Calm Calm - N/A   Unknown
2:00 AM 38.8 °F 37.9 °F 97% 30.30 in - Calm Calm - N/A   Unknown
3:00 AM 39.0 °F 38.1 °F 97% 30.31 in - Calm Calm - N/A   Unknown
4:00 AM 39 °F 38 °F 96% 30.30 in - Calm Calm - -  
4:00 AM 39.2 °F 38.3 °F 97% 30.30 in - Calm Calm - N/A   Unknown
5:00 AM 39.6 °F 38.7 °F 97% 30.30 in - Calm Calm - N/A   Unknown
6:00 AM 39.6 °F 38.7 °F 97% 30.31 in - Calm Calm - N/A   Unknown
7:00 AM 39.4 °F 38.5 °F 97% 30.31 in - Calm Calm - N/A   Unknown
8:00 AM 39.4 °F 38.5 °F 97% 30.32 in - Calm Calm - N/A   Unknown
9:00 AM 39.7 °F 38.8 °F 97% 30.33 in - Calm Calm - N/A   Unknown
10:00 AM 40 °F 39 °F 95% 30.35 in - Calm Calm - -  
10:00 AM 39.9 °F 39.0 °F 97% 30.35 in - Calm Calm - N/A   Unknown
11:00 AM 40.1 °F 39.2 °F 97% 30.35 in - Calm Calm - N/A   Unknown
12:00 PM 40.5 °F 39.6 °F 97% 30.35 in - Calm Calm - N/A   Unknown
1:00 PM 40.3 °F 39.4 °F 97% 30.35 in - Calm Calm - N/A   Unknown
2:00 PM 40.3 °F 39.4 °F 97% 30.35 in - Calm Calm - N/A   Unknown
3:00 PM 40.1 °F 39.2 °F 97% 30.35 in - Calm Calm - N/A   Unknown
4:00 PM 40 °F 39 °F 96% 30.35 in - Calm Calm - -  
4:00 PM 40.1 °F 39.2 °F 97% 30.35 in - Calm Calm - N/A   Unknown
5:00 PM 40.1 °F 39.2 °F 97% 30.36 in - Calm Calm - N/A   Unknown
6:00 PM 39.9 °F 39.0 °F 97% 30.35 in - Calm Calm - N/A   Unknown
7:00 PM 40.1 °F 39.2 °F 97% 30.35 in - Calm Calm - N/A   Unknown
8:00 PM 39.6 °F 38.7 °F 97% 30.35 in - Calm Calm - N/A   Unknown
9:00 PM 39.6 °F 38.7 °F 97% 30.35 in - Calm Calm - N/A   Unknown
10:00 PM 40 °F 39 °F 93% 30.35 in - Calm Calm - -  
10:00 PM 39.6 °F 38.7 °F 97% 30.35 in - Calm Calm - N/A   Unknown
11:00 PM 39.9 °F 39.0 °F 97% 30.35 in - Calm Calm - N/A   Unknown